This is the latest recevied weather packets stored in our database for station/object DG7AA-13. If no packets are shown the sender has not sent any weather packets the latest 10 day(s).
| Time | Temp. | Humidity | Pressure | Rain* | Wind** | Luminosity | Snow |
|---|---|---|---|---|---|---|---|
| 1777638933 | 22.22° C | 36% | - | 0 mm | - | - | - |
| 1777638323 | 22.22° C | 37% | - | 0 mm | - | - | - |
| 1777637732 | 22.22° C | 38% | - | 0 mm | - | - | - |
| 1777637127 | 22.22° C | 37% | - | 0 mm | - | - | - |
| 1777636526 | 21.67° C | 38% | - | 0 mm | - | - | - |
| 1777635923 | 21.67° C | 39% | - | 0 mm | - | - | - |
| 1777635332 | 21.67° C | 38% | - | 0 mm | - | - | - |
| 1777634724 | 21.67° C | 38% | - | 0 mm | - | - | - |
| 1777634131 | 21.11° C | 38% | - | 0 mm | - | - | - |
| 1777633527 | 21.67° C | 39% | - | 0 mm | - | - | - |
| 1777632927 | 21.11° C | 39% | - | 0 mm | - | - | - |
| 1777632323 | 20.56° C | 37% | - | 0 mm | - | - | - |
| 1777631123 | 21.11° C | 38% | - | 0 mm | - | - | - |
| 1777630532 | 20° C | 38% | - | 0 mm | - | - | - |
| 1777629923 | 20.56° C | 37% | - | 0 mm | - | - | - |
| 1777629335 | 20° C | 38% | - | 0 mm | - | - | - |
| 1777628724 | 20° C | 38% | - | 0 mm | - | - | - |
| 1777628129 | 19.44° C | 41% | - | 0 mm | - | - | - |
| 1777627533 | 18.89° C | 42% | - | 0 mm | - | - | - |
| 1777626924 | 18.89° C | 42% | - | 0 mm | - | - | - |
| 1777626323 | 18.89° C | 40% | - | 0 mm | - | - | - |
| 1777625719 | 19.44° C | 43% | - | 0 mm | - | - | - |
| 1777625123 | 18.89° C | 44% | - | 0 mm | - | - | - |
| 1777624529 | 17.78° C | 47% | - | 0 mm | - | - | - |
| 1777623926 | 17.22° C | 49% | - | 0 mm | - | - | - |
* Rain latest hour (hover to see other rain measurements)
** Current wind speed in m/s (hover to see current wind gust speed)